When you browse on this site, cookies collect data to enhance your experience and personalize the content and advertising you see.
Visit our Privacy Policy to learn more. By continuing to use the site, you agree to this use of cookies and data.
  • In Hungary
  • List of Countries
  • For 7 days
  • Water Temperature
  • Weather Map
  • News
  • Weather Widgets
  • user-avatar
    Login

    Hourly Weather Suchozebry

    Today, 20 September, Friday

    Time Temperature Precipitation Wind Pressure Humidity
    00:00 +5°C° 0 mm 4 mps 753 mmHg 91%
    01:00 +4°C° 0 mm 4 mps 753 mmHg 93%
    02:00 +4°C° 0 mm 4 mps 753 mmHg 93%
    03:00 +4°C° 0 mm 4 mps 753 mmHg 92%
    04:00 +4°C° 0 mm 4 mps 753 mmHg 92%
    05:00 +4°C° 0 mm 4 mps 753 mmHg 88%
    06:00 +5°C° 0 mm 4 mps 753 mmHg 84%
    07:00 +6°C° 0 mm 4 mps 754 mmHg 80%
    08:00 +7°C° 0 mm 5 mps 754 mmHg 71%
    09:00 +9°C° 0 mm 5 mps 754 mmHg 62%
    10:00 +12°C° 0 mm 5 mps 754 mmHg 53%
    11:00 +12°C° 0.1 mm 5 mps 754 mmHg 55%
    12:00 +12°C° 0.1 mm 5 mps 753 mmHg 57%
    13:00 +12°C° 0.1 mm 4 mps 753 mmHg 58%
    14:00 +12°C° 0.1 mm 4 mps 753 mmHg 59%
    15:00 +12°C° 0.1 mm 4 mps 753 mmHg 60%
    16:00 +12°C° 0.1 mm 4 mps 753 mmHg 61%
    17:00 +10°C° 0 mm 3 mps 753 mmHg 66%
    18:00 +9°C° 0 mm 2 mps 753 mmHg 70%
    19:00 +9°C° 0 mm 1 mps 753 mmHg 75%
    20:00 +8°C° 0 mm 2 mps 753 mmHg 74%
    21:00 +8°C° 0 mm 2 mps 753 mmHg 73%
    22:00 +8°C° 0 mm 2 mps 753 mmHg 72%
    23:00 +8°C° 0 mm 3 mps 753 mmHg 72%

    Tomorrow, 21 September, Saturday

    Time Temperature Precipitation Wind Pressure Humidity
    00:00 +9°C° 0 mm 3 mps 753 mmHg 72%
    01:00 +9°C° 0 mm 3 mps 752 mmHg 72%
    02:00 +8°C° 0.1 mm 4 mps 752 mmHg 76%
    03:00 +10°C° 0.1 mm 4 mps 752 mmHg 81%
    04:00 +9°C° 0.1 mm 5 mps 752 mmHg 86%
    05:00 +9°C° 0 mm 5 mps 752 mmHg 86%
    06:00 +9°C° 0 mm 5 mps 752 mmHg 86%
    07:00 +10°C° 0 mm 6 mps 752 mmHg 86%
    08:00 +11°C° 0 mm 6 mps 752 mmHg 83%
    09:00 +13°C° 0 mm 6 mps 752 mmHg 80%
    10:00 +13°C° 0 mm 6 mps 752 mmHg 77%
    11:00 +14°C° 0 mm 6 mps 752 mmHg 75%
    12:00 +14°C° 0 mm 6 mps 752 mmHg 73%
    13:00 +15°C° 0 mm 6 mps 752 mmHg 71%
    14:00 +15°C° 0 mm 5 mps 752 mmHg 72%
    15:00 +14°C° 0 mm 5 mps 751 mmHg 73%
    16:00 +14°C° 0 mm 5 mps 751 mmHg 74%
    17:00 +13°C° 0 mm 4 mps 751 mmHg 79%
    18:00 +12°C° 0 mm 3 mps 751 mmHg 83%
    19:00 +12°C° 0 mm 2 mps 751 mmHg 87%
    20:00 +10°C° 0 mm 2 mps 751 mmHg 88%
    21:00 +10°C° 0 mm 2 mps 751 mmHg 89%
    22:00 +9°C° 0 mm 2 mps 751 mmHg 90%
    23:00 +9°C° 0 mm 2 mps 751 mmHg 91%

    Day after tomorrow, 22 September, Sunday

    Time Temperature Precipitation Wind Pressure Humidity
    00:00 +9°C° 0 mm 2 mps 751 mmHg 92%
    01:00 +9°C° 0 mm 2 mps 751 mmHg 93%
    02:00 +9°C° 0 mm 2 mps 751 mmHg 93%
    03:00 +9°C° 0 mm 2 mps 751 mmHg 94%
    04:00 +9°C° 0 mm 2 mps 751 mmHg 94%
    05:00 +9°C° 0 mm 2 mps 751 mmHg 92%
    06:00 +10°C° 0 mm 2 mps 750 mmHg 89%
    07:00 +11°C° 0 mm 3 mps 750 mmHg 87%
    08:00 +13°C° 0 mm 3 mps 750 mmHg 79%
    09:00 +16°C° 0 mm 3 mps 750 mmHg 71%
    10:00 +18°C° 0 mm 3 mps 751 mmHg 63%
    11:00 +19°C° 0 mm 3 mps 750 mmHg 59%
    12:00 +20°C° 0 mm 3 mps 750 mmHg 55%
    13:00 +21°C° 0 mm 3 mps 750 mmHg 51%
    14:00 +21°C° 0 mm 3 mps 749 mmHg 52%
    15:00 +21°C° 0 mm 2 mps 749 mmHg 54%
    16:00 +20°C° 0 mm 2 mps 748 mmHg 56%
    17:00 +19°C° 0 mm 1 mps 748 mmHg 61%
    18:00 +16°C° 0 mm 1 mps 748 mmHg 65%
    19:00 +15°C° 0 mm 1 mps 748 mmHg 70%
    20:00 +13°C° 0 mm 0 mps 748 mmHg 71%
    21:00 +13°C° 0 mm 0 mps 748 mmHg 71%
    22:00 +12°C° 0 mm 0 mps 748 mmHg 72%
    23:00 +13°C° 0 mm 1 mps 748 mmHg 73%

    23 September, Monday

    Time Temperature Precipitation Wind Pressure Humidity
    00:00 +13°C° 0 mm 1 mps 748 mmHg 73%
    01:00 +12°C° 0 mm 1 mps 748 mmHg 74%
    02:00 +12°C° 0 mm 2 mps 748 mmHg 76%
    03:00 +12°C° 0 mm 2 mps 748 mmHg 77%
    04:00 +10°C° 0 mm 2 mps 747 mmHg 78%
    05:00 +12°C° 0 mm 2 mps 747 mmHg 77%
    06:00 +11°C° 0 mm 3 mps 747 mmHg 76%
    07:00 +12°C° 0 mm 3 mps 747 mmHg 74%
    08:00 +14°C° 0 mm 4 mps 747 mmHg 69%
    09:00 +17°C° 0 mm 4 mps 747 mmHg 63%
    10:00 +18°C° 0 mm 4 mps 747 mmHg 57%
    11:00 +19°C° 0 mm 4 mps 746 mmHg 54%
    12:00 +20°C° 0 mm 5 mps 746 mmHg 50%
    13:00 +21°C° 0 mm 5 mps 746 mmHg 46%
    14:00 +21°C° 0 mm 4 mps 745 mmHg 49%
    15:00 +20°C° 0 mm 3 mps 745 mmHg 51%
    16:00 +20°C° 0 mm 3 mps 745 mmHg 54%
    17:00 +18°C° 0 mm 3 mps 745 mmHg 59%
    18:00 +16°C° 0 mm 3 mps 745 mmHg 65%
    19:00 +14°C° 0 mm 2 mps 745 mmHg 70%
    20:00 +13°C° 0 mm 2 mps 745 mmHg 75%
    21:00 +12°C° 0 mm 2 mps 745 mmHg 80%
    22:00 +12°C° 0 mm 2 mps 745 mmHg 84%
    23:00 +10°C° 0 mm 2 mps 745 mmHg 87%

    24 September, Tuesday

    Time Temperature Precipitation Wind Pressure Humidity
    00:00 +10°C° 0 mm 2 mps 745 mmHg 89%
    01:00 +10°C° 0 mm 2 mps 745 mmHg 91%
    02:00 +10°C° 0 mm 2 mps 745 mmHg 92%
    03:00 +9°C° 0 mm 2 mps 744 mmHg 93%
    04:00 +9°C° 0 mm 2 mps 744 mmHg 94%
    05:00 +10°C° 0 mm 2 mps 744 mmHg 92%
    06:00 +10°C° 0 mm 2 mps 745 mmHg 90%
    07:00 +12°C° 0 mm 2 mps 745 mmHg 88%
    08:00 +14°C° 0 mm 2 mps 745 mmHg 80%
    09:00 +16°C° 0 mm 2 mps 745 mmHg 72%
    10:00 +17°C° 0 mm 2 mps 746 mmHg 64%
    11:00 +18°C° 0 mm 2 mps 745 mmHg 62%
    12:00 +19°C° 0 mm 2 mps 745 mmHg 60%
    13:00 +19°C° 0 mm 2 mps 745 mmHg 58%
    14:00 +19°C° 0 mm 2 mps 745 mmHg 61%
    15:00 +20°C° 0 mm 1 mps 745 mmHg 63%
    16:00 +19°C° 0 mm 1 mps 745 mmHg 66%
    17:00 +19°C° 0 mm 1 mps 745 mmHg 69%
    18:00 +18°C° 0 mm 1 mps 745 mmHg 71%
    19:00 +16°C° 0 mm 2 mps 746 mmHg 74%
    20:00 +16°C° 0 mm 2 mps 746 mmHg 76%
    21:00 +16°C° 0 mm 2 mps 746 mmHg 78%
    22:00 +16°C° 0 mm 2 mps 746 mmHg 80%
    23:00 +15°C° 0 mm 2 mps 746 mmHg 80%

    25 September, Wednesday

    Time Temperature Precipitation Wind Pressure Humidity
    00:00 +14°C° 0 mm 3 mps 745 mmHg 80%
    01:00 +14°C° 0 mm 3 mps 745 mmHg 80%
    02:00 +13°C° 0 mm 3 mps 745 mmHg 81%
    03:00 +13°C° 0 mm 3 mps 745 mmHg 82%
    04:00 +13°C° 0 mm 3 mps 744 mmHg 83%
    05:00 +13°C° 0.1 mm 4 mps 744 mmHg 82%
    06:00 +13°C° 0.1 mm 4 mps 744 mmHg 82%
    07:00 +13°C° 0.1 mm 4 mps 744 mmHg 82%
    08:00 +14°C° 0.1 mm 4 mps 744 mmHg 80%
    09:00 +14°C° 0.1 mm 4 mps 744 mmHg 78%
    10:00 +15°C° 0.1 mm 4 mps 744 mmHg 77%
    11:00 +17°C° 0.2 mm 4 mps 743 mmHg 73%
    12:00 +17°C° 0.2 mm 5 mps 743 mmHg 70%
    13:00 +19°C° 0.2 mm 5 mps 743 mmHg 66%
    14:00 +18°C° 0.1 mm 4 mps 742 mmHg 72%
    15:00 +17°C° 0.1 mm 3 mps 742 mmHg 77%
    16:00 +16°C° 0.1 mm 3 mps 742 mmHg 82%
    17:00 +16°C° 0.1 mm 3 mps 742 mmHg 83%
    18:00 +16°C° 0.1 mm 3 mps 742 mmHg 84%
    19:00 +14°C° 0.1 mm 3 mps 742 mmHg 85%
    20:00 +14°C° 0 mm 3 mps 742 mmHg 84%
    21:00 +14°C° 0 mm 3 mps 742 mmHg 84%
    22:00 +14°C° 0 mm 3 mps 741 mmHg 83%
    23:00 +14°C° 0.5 mm 3 mps 741 mmHg 86%
    Show more